Location: Martinez
(33.5170°N, 82.0760°W)
Time: 19:28:17
(UTC-05:00)

Hubble Space Telescope - Visible Passes

Search period start: 31 January 2015 00:00
Search period end: 10 February 2015 00:00
Orbit: 544 x 548 km, 28.5° (Epoch: 31 January)

Date Brightness Start Highest point End Pass type
(mag) Time Alt. Az. Time Alt. Az. Time Alt. Az.
31 Jan 1.5 19:35:06 10° WSW 19:39:03 41° S 19:39:39 38° SSE visible
01 Feb 1.6 19:27:03 10° WSW 19:31:01 41° S 19:32:12 33° SE visible
02 Feb 1.7 19:19:02 10° WSW 19:22:59 40° S 19:24:47 26° SE visible
03 Feb 1.9 19:11:01 10° WSW 19:14:55 38° S 19:17:23 19° SE visible
03 Feb 4.0 20:52:48 10° WSW 20:52:53 10° WSW 20:52:53 10° WSW visible
04 Feb 2.1 19:03:02 10° WSW 19:06:51 34° S 19:10:03 13° SE visible
04 Feb 3.8 20:45:07 10° WSW 20:45:33 12° SW 20:45:33 12° SW visible
05 Feb 2.3 18:55:03 10° WSW 18:58:46 30° SSW 19:02:28 10° SE visible
05 Feb 3.7 20:37:43 10° SW 20:38:17 11° SW 20:38:17 11° SW visible
06 Feb 2.6 18:47:07 10° WSW 18:50:40 26° SSW 18:54:12 10° SE visible
07 Feb 2.9 18:39:14 10° WSW 18:42:33 22° SSW 18:45:50 10° SE visible
08 Feb 3.2 18:31:27 10° WSW 18:34:26 19° SSW 18:37:21 10° SSE visible
